User: anonymous   Login
Location: Bangkok
(13.7500°N, 100.5170°E)
Time: 01:18:35
(UTC+07:00)
Language:

Cosmos 1898 Rocket - Orbit

View from above orbital plane
View from above orbital plane
View from above satellite
View from above satellite

Ground track
Ground track

The orbit data is extracted from the following two-line orbital elements,

1 18586U 87098B   17172.91774852 +.00000004 +00000-0 +10368-4 0  9997
2 18586 074.0076 286.6228 0021496 339.6739 157.8126 14.36781766547735
Epoch (UTC): 21 June 2017 22:01:33
Eccentricity: 0.0021496
inclination: 74.0076°
perigee height: 754 km
apogee height: 784 km
right ascension of ascending node: 286.6228°
argument of perigee: 339.6739°
revolutions per day: 14.36781766
mean anomaly at epoch: 157.8126°
orbit number at epoch: 54773

The dashed part of the orbit path shows where the satellite is in the earth's shadow,  

DLR